User: anonymous   Login
Location: Bijele Vode
(45.2833°N, 16.2000°E)
Time: 20:09:36
(UTC+00:00)
Language:

Okean 2 Rocket - Orbit

View from above orbital plane
View from above orbital plane
View from above satellite
View from above satellite

Ground track
Ground track

The orbit data is extracted from the following two-line orbital elements,

1 20511U 90018B   20332.73056146 +.00000114 +00000-0 +11952-4 0  9997
2 20511 082.5249 221.0744 0016232 305.6488 106.6721 14.80056251637268
Epoch (UTC): 27 November 2020 17:32:00
Eccentricity: 0.0016232
inclination: 82.5249°
perigee height: 618 km
apogee height: 640 km
right ascension of ascending node: 221.0744°
argument of perigee: 305.6488°
revolutions per day: 14.80056251
mean anomaly at epoch: 106.6721°
orbit number at epoch: 63726

The dashed part of the orbit path shows where the satellite is in the earth's shadow,  

DLR